Hartford Brainard Airport
KHFD : now visible

Airfield :











YOU CAN JOIN US ON...

 
LOGIN :

Register | Disclaimer

   EN    FR    IT 

 









Legend :    VFR   Marginal VFR   IFR   Intensive IFR   Very Intensive IFR
Visi :
Ceiling :
>= 8 km
>= 3000ft
5 to 8 km
1000 to 3000 ft
1500m to 5 km
500 to 1000 ft
800 to 1500m
200 to 500 ft
< 800m
< 200 ft
Symbols :   Thunderstorms  Fog  Heavy snow  Heavy precipitations  Wind > 20 kt






- Airport Elevation : 18 ft


KHFD - Hartford Brainard

CURRENT METAR :
  • 040653Z AUTO 33012G16KT 10SM CLR 05/M05 A3012 RMK AO2 SLP199 T00501050

EXPIRED METARs :
  • 040553Z AUTO 32007KT 10SM CLR 06/M03 A3009 RMK AO2 SLP188 T00561028 10139 20056 51014
  • 040453Z 31009KT 10SM SCT060 07/M01 A3008 RMK AO2 SLP185 T00671011 401440028

TAF N/A
KZBW FIR / North America



MET'MAP, your aeronautical weather chart ! - Copyright ORBIFLY December 2007 - Disclaimer

ORBIFLY MET'MAP TEAM :

Programming & Development : Alexandra Zaïnal
Original concept : Baudouin d'Aumeries
Technical & hardware support : Manuel Goepfert
Assistance : Marc-Olivier Méhu




SOURCES & CREDITS :

   NOAA       Earth
Advisory